Total_Precipitation_Accumulation
1.42 1.46 1.46 1.50 1.43 1.54 1.75 1.95 1.90 1.94 1.97 1.84 1.58 1.43 1.42 1.41 1.42 1.43 1.44 1.69 1.58 1.53 1.91 2.03 1.85 1.65 1.51 1.27 1.04 0.86 0.76 0.72 0.65 0.50 0.43 0.47 0.55 0.61 0.55 0.48 0.44 0.41 0.34
1.76 1.68 1.51 1.55 1.50 1.57 1.67 1.86 1.95 2.22 2.16 2.06 1.64 1.48 1.50 1.58 1.59 1.64 1.65 1.90 1.77 1.53 1.70 1.86 1.96 1.89 1.73 1.56 1.32 1.11 0.92 0.82 0.72 0.52 0.44 0.42 0.49 0.59 0.57 0.55 0.51 0.48 0.40
1.93 1.84 1.64 1.53 1.59 1.67 1.74 1.79 1.92 2.19 2.12 1.99 1.71 1.61 1.54 1.45 1.33 1.37 1.48 1.63 1.57 1.49 1.55 1.64 1.80 1.84 1.81 1.82 1.69 1.52 1.24 1.00 0.85 0.66 0.50 0.40 0.35 0.40 0.41 0.46 0.49 0.49 0.42
1.92 1.86 1.64 1.47 1.69 1.70 1.75 1.88 1.96 2.09 2.16 2.17 1.89 1.65 1.54 1.44 1.24 1.26 1.26 1.29 1.37 1.15 1.34 1.55 1.68 1.73 1.93 2.06 2.10 2.08 1.76 1.33 1.02 0.83 0.64 0.47 0.36 0.34 0.30 0.30 0.36 0.36 0.30
1.79 1.83 1.57 1.45 1.70 1.86 1.84 1.72 1.98 2.18 2.14 2.16 1.87 1.64 1.40 1.24 1.08 1.05 1.09 1.06 1.10 1.08 1.10 1.21 1.33 1.44 1.83 2.27 2.49 2.51 2.33 1.84 1.33 1.06 0.90 0.74 0.57 0.46 0.34 0.27 0.28 0.25 0.22
1.59 1.79 1.52 1.51 1.77 1.83 1.79 1.87 2.02 2.18 2.06 2.09 1.89 1.46 1.20 0.95 0.91 0.82 0.77 0.80 0.76 0.71 0.79 0.99 1.28 1.21 1.54 1.89 2.12 2.36 2.55 2.39 1.87 1.39 1.18 1.04 0.90 0.70 0.49 0.36 0.30 0.27 0.22
1.63 1.90 1.66 1.67 1.72 1.67 1.66 1.85 1.99 1.92 1.80 2.21 2.13 1.42 0.92 0.73 0.64 0.49 0.53 0.55 0.50 0.54 0.72 0.98 1.16 1.22 1.18 1.27 1.43 1.67 2.11 2.37 2.24 1.82 1.54 1.35 1.22 0.94 0.69 0.56 0.41 0.32 0.25
1.61 1.71 1.73 1.66 1.66 1.63 1.49 1.59 1.84 1.72 1.44 1.87 2.04 1.82 1.20 0.76 0.54 0.39 0.41 0.41 0.45 0.59 0.66 0.74 0.95 1.14 1.13 1.27 1.20 1.13 1.51 1.97 2.28 2.23 1.94 1.61 1.32 1.02 0.82 0.70 0.54 0.42 0.33
1.64 1.72 1.62 1.48 1.44 1.45 1.33 1.34 1.54 1.61 1.41 1.46 1.81 2.07 1.59 0.98 0.73 0.49 0.50 0.53 0.64 0.76 0.76 0.81 0.89 1.01 1.09 1.27 1.39 1.39 1.23 1.39 1.90 2.45 2.43 1.97 1.44 1.08 0.90 0.85 0.78 0.60 0.47
1.77 1.67 1.51 1.34 1.19 1.16 1.12 1.09 1.26 1.38 1.39 1.19 1.33 1.47 1.44 1.34 1.21 0.79 0.58 0.62 0.77 0.84 0.87 0.91 0.94 0.99 1.08 1.28 1.43 1.46 1.19 1.07 1.30 2.02 2.43 2.33 1.86 1.34 1.07 1.09 1.31 1.17 0.80
1.72 1.55 1.42 1.30 1.19 1.09 1.02 1.01 1.05 1.09 1.13 1.05 1.10 1.16 1.25 1.25 1.19 1.09 0.82 0.79 0.80 0.67 0.68 0.74 0.88 1.14 1.23 1.33 1.52 1.48 1.38 1.32 1.28 1.40 1.66 1.87 1.90 1.65 1.41 1.41 1.81 1.99 1.68
1.29 1.22 1.14 1.05 1.00 0.99 1.01 0.98 0.95 0.96 0.98 1.00 1.02 1.04 1.15 1.24 1.28 1.29 1.11 0.98 0.88 0.73 0.71 0.72 0.80 0.99 1.10 1.18 1.24 1.34 1.33 1.28 1.17 1.14 1.18 1.27 1.41 1.57 1.69 1.85 2.22 2.54 2.62
0.73 0.70 0.73 0.74 0.75 0.75 0.76 0.79 0.78 0.79 0.87 0.95 0.97 1.03 1.13 1.22 1.31 1.34 1.25 1.05 0.95 0.85 0.90 0.86 0.79 0.90 0.93 1.11 1.19 1.09 0.95 0.95 0.83 0.81 0.86 0.93 1.08 1.25 1.37 1.52 1.89 2.29 2.61
0.52 0.51 0.54 0.56 0.58 0.61 0.63 0.66 0.66 0.66 0.68 0.74 0.79 0.95 1.07 1.08 1.18 1.28 1.29 1.24 1.15 1.09 1.16 1.09 0.94 0.90 0.94 1.04 1.04 0.93 0.87 0.75 0.61 0.53 0.54 0.58 0.66 0.83 1.01 1.18 1.37 1.58 1.81
0.46 0.47 0.51 0.55 0.58 0.62 0.63 0.62 0.62 0.63 0.72 0.77 0.79 0.90 0.99 1.04 1.10 1.19 1.28 1.33 1.37 1.34 1.31 1.25 1.04 0.98 0.95 0.92 0.97 0.90 0.95 0.76 0.51 0.42 0.41 0.43 0.44 0.48 0.60 0.78 0.95 1.11 1.33
0.46 0.49 0.50 0.56 0.60 0.60 0.58 0.57 0.57 0.60 0.69 0.79 0.89 0.99 1.04 1.04 1.06 1.15 1.27 1.44 1.54 1.52 1.38 1.15 1.04 1.07 1.09 0.99 0.93 0.80 0.75 0.73 0.55 0.43 0.39 0.39 0.39 0.41 0.46 0.60 0.75 0.88 1.04
0.45 0.48 0.51 0.53 0.54 0.55 0.56 0.59 0.59 0.64 0.70 0.75 0.79 0.91 1.00 1.03 1.07 1.11 1.20 1.29 1.44 1.57 1.44 1.22 1.17 1.22 1.28 1.25 1.09 0.90 0.75 0.69 0.59 0.47 0.38 0.37 0.37 0.42 0.48 0.55 0.66 0.77 0.85
0.52 0.52 0.55 0.56 0.53 0.56 0.64 0.71 0.70 0.74 0.80 0.81 0.82 0.85 0.84 0.89 1.00 1.02 1.08 1.12 1.23 1.43 1.39 1.30 1.33 1.37 1.39 1.33 1.25 1.07 0.88 0.77 0.71 0.55 0.42 0.37 0.36 0.38 0.42 0.42 0.50 0.65 0.77
0.57 0.58 0.63 0.71 0.73 0.73 0.73 0.78 0.84 0.86 0.79 0.75 0.75 0.75 0.72 0.74 0.79 0.88 0.99 0.97 0.99 1.12 1.26 1.33 1.43 1.50 1.57 1.46 1.28 1.15 1.02 0.93 0.74 0.64 0.53 0.43 0.40 0.38 0.39 0.39 0.43 0.51 0.64
0.50 0.55 0.63 0.74 0.84 0.89 0.91 0.87 0.82 0.80 0.75 0.70 0.65 0.61 0.63 0.66 0.68 0.73 0.83 0.88 0.90 0.99 1.12 1.21 1.38 1.58 1.61 1.65 1.52 1.31 1.21 1.15 0.91 0.67 0.62 0.55 0.49 0.44 0.40 0.36 0.37 0.44 0.54
0.49 0.60 0.72 0.81 0.95 1.01 0.95 0.91 0.82 0.77 0.74 0.66 0.58 0.53 0.52 0.50 0.53 0.60 0.62 0.69 0.77 0.87 0.91 1.00 1.15 1.39 1.53 1.64 1.60 1.41 1.27 1.29 1.16 0.87 0.72 0.67 0.64 0.57 0.51 0.45 0.36 0.36 0.44
0.46 0.54 0.61 0.68 0.71 0.66 0.67 0.63 0.58 0.55 0.56 0.52 0.49 0.49 0.45 0.40 0.43 0.44 0.42 0.48 0.56 0.63 0.73 0.87 0.95 1.14 1.35 1.45 1.57 1.65 1.52 1.37 1.32 1.17 1.06 0.98 0.86 0.80 0.67 0.53 0.43 0.34 0.34
0.47 0.50 0.49 0.52 0.52 0.51 0.42 0.36 0.34 0.34 0.39 0.41 0.43 0.45 0.36 0.31 0.37 0.41 0.39 0.35 0.37 0.40 0.47 0.66 0.79 0.89 1.12 1.33 1.52 1.68 1.68 1.61 1.51 1.44 1.35 1.32 1.11 0.94 0.81 0.68 0.59 0.45 0.37
0.49 0.49 0.48 0.47 0.51 0.47 0.36 0.28 0.25 0.24 0.29 0.32 0.38 0.43 0.44 0.39 0.39 0.43 0.44 0.39 0.34 0.33 0.35 0.41 0.52 0.68 0.95 1.32 1.54 1.60 1.73 1.77 1.73 1.66 1.58 1.56 1.40 1.21 1.05 0.92 0.81 0.62 0.49
0.65 0.60 0.55 0.53 0.55 0.54 0.43 0.30 0.26 0.27 0.33 0.34 0.38 0.43 0.48 0.47 0.45 0.36 0.39 0.40 0.38 0.38 0.32 0.36 0.42 0.54 0.72 0.99 1.39 1.53 1.57 1.52 1.48 1.33 1.21 1.24 1.29 1.29 1.26 1.16 1.01 0.87 0.71
0.84 0.76 0.68 0.68 0.69 0.72 0.64 0.41 0.34 0.36 0.42 0.48 0.57 0.58 0.50 0.45 0.41 0.35 0.38 0.44 0.41 0.37 0.40 0.41 0.42 0.43 0.49 0.65 0.94 1.19 1.24 1.21 1.12 1.12 0.93 0.88 0.91 0.98 1.10 1.06 0.97 0.90 0.84